Weather in Tri Protoka

Russia / Astrakhan Oblast     46°19′31″N   48°07′05″E
temp.,
°C
wind,
m/s
gust,
m/s
humid.,
%
clouds,
%
prec.,
mm/h
press.,
hPa
HPBL,
m
18 september, sat
sat1801:00+14e124697 0.0 101863
04:00+15e2242100 0.0 101885
07:00+13e244094 0.0 1018130
10:00+17ese223544 0.0 1019550
13:00+21sse11294 0.0 10181710
16:00+22e11265 0.0 10171827
19:00+17sse58530 0.0 1017303
22:00+15se36705 0.0 1019165
19 september, sun
sun1901:00+14ese34715 0.0 101994
04:00+13e346899 0.0 101990
07:00+13e4963100 0.0 1019212
10:00+20ese7843100 0.0 10191157
13:00+22ese7733100 0.0 10191537
16:00+21ese7837100 0.0 10181272
19:00+17e6105482 0.0 1018506
22:00+15e5126898 0.0 1018323
20 september, mon
mon2001:00+15e512675 0.0 1017312
04:00+15e5137299 0.0 1015324
07:00+15e5137593 0.0 1015296
10:00+24ese683974 0.0 1014734
13:00+24ese6844100 0.6 1013874
16:00+25se6650100 0.6 10131055
19:00+20se3572100 0.0 1014154
22:00+18se3481100 0.0 1015102
21 september, tue
tue2101:00+18sse348667 0.0 101578
04:00+18sse228496 0.0 101542
07:00+17se118598 0.0 101615
10:00+23se3451100 0.0 1016576
13:00+27se443285 0.0 10151387
16:00+26se772711 0.0 10151088
19:00+20se5842100 0.0 1014263
22:00+17ese41264100 0.0 1014290
22 september, wed
wed2201:00+17se3764100 0.0 1014151
04:00+17se2268100 0.0 101328
07:00+18w2265100 0.0 101451
10:00+21wnw4564100 0.3 1014673
13:00+22nw5554100 0.1 1015895
16:00+21nw4441100 0.1 1015791
19:00+17nnw3465100 0.1 1016228
22:00+17nnw237199 0.4 1016182